When you browse on this site, cookies collect data to enhance your experience and personalize the content and advertising you see.
Visit our Privacy Policy to learn more. By continuing to use the site, you agree to this use of cookies and data.
  • In Lithuania
  • List of Countries
  • For 7 days
  • Water Temperature
  • Weather Map
  • Weather Widgets
  • user-avatar
    Login

    Hourly Weather Elbasan

    Today, 6 April, Monday

    Time Temperature Precipitation Wind Pressure Humidity
    00:00 +8°C° 0 mm 4 mps 738 mmHg 77%
    01:00 +9°C° 0 mm 3 mps 738 mmHg 79%
    02:00 +8°C° 0 mm 3 mps 738 mmHg 80%
    03:00 +8°C° 0 mm 3 mps 738 mmHg 80%
    04:00 +8°C° 0 mm 3 mps 738 mmHg 80%
    05:00 +8°C° 0 mm 3 mps 739 mmHg 78%
    06:00 +9°C° 0 mm 3 mps 739 mmHg 75%
    07:00 +10°C° 0 mm 3 mps 740 mmHg 73%
    08:00 +11°C° 0 mm 3 mps 740 mmHg 67%
    09:00 +12°C° 0 mm 4 mps 740 mmHg 60%
    10:00 +14°C° 0 mm 4 mps 741 mmHg 53%
    11:00 +14°C° 0 mm 4 mps 741 mmHg 52%
    12:00 +15°C° 0 mm 4 mps 741 mmHg 50%
    13:00 +15°C° 0 mm 4 mps 741 mmHg 49%
    14:00 +15°C° 0 mm 4 mps 741 mmHg 49%
    15:00 +14°C° 0 mm 4 mps 741 mmHg 50%
    16:00 +14°C° 0 mm 4 mps 741 mmHg 51%
    17:00 +13°C° 0 mm 4 mps 741 mmHg 54%
    18:00 +11°C° 0 mm 4 mps 741 mmHg 57%
    19:00 +10°C° 0 mm 3 mps 741 mmHg 60%
    20:00 +10°C° 0 mm 3 mps 742 mmHg 61%
    21:00 +9°C° 0 mm 3 mps 742 mmHg 62%
    22:00 +9°C° 0 mm 3 mps 743 mmHg 63%
    23:00 +8°C° 0 mm 3 mps 742 mmHg 63%

    Tomorrow, 7 April, Tuesday

    Time Temperature Precipitation Wind Pressure Humidity
    00:00 +8°C° 0 mm 3 mps 742 mmHg 63%
    01:00 +8°C° 0 mm 3 mps 742 mmHg 64%
    02:00 +7°C° 0 mm 3 mps 742 mmHg 64%
    03:00 +7°C° 0 mm 3 mps 742 mmHg 63%
    04:00 +7°C° 0 mm 3 mps 742 mmHg 63%
    05:00 +8°C° 0 mm 3 mps 742 mmHg 61%
    06:00 +9°C° 0 mm 3 mps 742 mmHg 59%
    07:00 +9°C° 0 mm 3 mps 742 mmHg 57%
    08:00 +11°C° 0 mm 3 mps 742 mmHg 48%
    09:00 +13°C° 0 mm 3 mps 743 mmHg 39%
    10:00 +15°C° 0 mm 4 mps 743 mmHg 30%
    11:00 +15°C° 0 mm 4 mps 743 mmHg 29%
    12:00 +17°C° 0 mm 4 mps 743 mmHg 29%
    13:00 +17°C° 0 mm 5 mps 743 mmHg 29%
    14:00 +16°C° 0 mm 5 mps 742 mmHg 31%
    15:00 +17°C° 0 mm 4 mps 742 mmHg 34%
    16:00 +15°C° 0 mm 4 mps 742 mmHg 37%
    17:00 +14°C° 0 mm 4 mps 742 mmHg 41%
    18:00 +12°C° 0 mm 4 mps 742 mmHg 45%
    19:00 +10°C° 0 mm 3 mps 742 mmHg 50%
    20:00 +10°C° 0 mm 3 mps 743 mmHg 51%
    21:00 +9°C° 0 mm 3 mps 743 mmHg 52%
    22:00 +9°C° 0 mm 3 mps 743 mmHg 53%
    23:00 +8°C° 0 mm 3 mps 743 mmHg 55%

    Day after tomorrow, 8 April, Wednesday

    Time Temperature Precipitation Wind Pressure Humidity
    00:00 +8°C° 0 mm 3 mps 743 mmHg 57%
    01:00 +7°C° 0 mm 2 mps 743 mmHg 59%
    02:00 +7°C° 0 mm 2 mps 743 mmHg 60%
    03:00 +7°C° 0 mm 2 mps 743 mmHg 61%
    04:00 +6°C° 0 mm 2 mps 742 mmHg 62%
    05:00 +7°C° 0 mm 2 mps 742 mmHg 62%
    06:00 +8°C° 0 mm 2 mps 742 mmHg 61%
    07:00 +9°C° 0 mm 2 mps 742 mmHg 60%
    08:00 +12°C° 0 mm 2 mps 742 mmHg 53%
    09:00 +13°C° 0 mm 3 mps 742 mmHg 46%
    10:00 +14°C° 0 mm 3 mps 742 mmHg 39%
    11:00 +16°C° 0 mm 3 mps 741 mmHg 37%
    12:00 +17°C° 0 mm 3 mps 741 mmHg 35%
    13:00 +18°C° 0 mm 3 mps 741 mmHg 33%
    14:00 +18°C° 0 mm 3 mps 740 mmHg 34%
    15:00 +18°C° 0 mm 3 mps 740 mmHg 36%
    16:00 +17°C° 0 mm 3 mps 739 mmHg 38%
    17:00 +16°C° 0 mm 2 mps 739 mmHg 44%
    18:00 +14°C° 0 mm 2 mps 739 mmHg 50%
    19:00 +12°C° 0 mm 2 mps 739 mmHg 57%
    20:00 +10°C° 0 mm 2 mps 739 mmHg 57%
    21:00 +10°C° 0 mm 2 mps 740 mmHg 57%
    22:00 +9°C° 0 mm 2 mps 740 mmHg 57%
    23:00 +9°C° 0 mm 2 mps 740 mmHg 58%

    9 April, Thursday

    Time Temperature Precipitation Wind Pressure Humidity
    00:00 +8°C° 0 mm 2 mps 739 mmHg 58%
    01:00 +8°C° 0 mm 2 mps 739 mmHg 58%
    02:00 +8°C° 0 mm 2 mps 739 mmHg 59%
    03:00 +8°C° 0 mm 2 mps 739 mmHg 60%
    04:00 +7°C° 0 mm 2 mps 739 mmHg 61%
    05:00 +8°C° 0 mm 2 mps 739 mmHg 60%
    06:00 +10°C° 0 mm 2 mps 739 mmHg 59%
    07:00 +12°C° 0 mm 1 mps 739 mmHg 59%
    08:00 +14°C° 0 mm 1 mps 739 mmHg 53%
    09:00 +16°C° 0 mm 1 mps 739 mmHg 46%
    10:00 +18°C° 0 mm 1 mps 739 mmHg 40%
    11:00 +18°C° 0 mm 2 mps 738 mmHg 39%
    12:00 +19°C° 0 mm 2 mps 738 mmHg 39%
    13:00 +20°C° 0 mm 2 mps 738 mmHg 39%
    14:00 +19°C° 0 mm 2 mps 737 mmHg 42%
    15:00 +19°C° 0 mm 3 mps 737 mmHg 46%
    16:00 +18°C° 0 mm 3 mps 737 mmHg 50%
    17:00 +16°C° 0 mm 2 mps 737 mmHg 59%
    18:00 +14°C° 0 mm 1 mps 737 mmHg 67%
    19:00 +11°C° 0 mm 0 mps 736 mmHg 76%
    20:00 +11°C° 0 mm 0 mps 737 mmHg 75%
    21:00 +12°C° 0 mm 1 mps 737 mmHg 74%
    22:00 +11°C° 0 mm 1 mps 737 mmHg 73%
    23:00 +11°C° 0 mm 1 mps 737 mmHg 72%

    10 April, Friday

    Time Temperature Precipitation Wind Pressure Humidity
    00:00 +11°C° 0 mm 1 mps 737 mmHg 72%
    01:00 +10°C° 0 mm 1 mps 737 mmHg 72%
    02:00 +10°C° 0 mm 1 mps 737 mmHg 71%
    03:00 +10°C° 0 mm 1 mps 737 mmHg 71%
    04:00 +10°C° 0 mm 1 mps 737 mmHg 70%
    05:00 +11°C° 0 mm 1 mps 737 mmHg 68%
    06:00 +12°C° 0 mm 1 mps 737 mmHg 65%
    07:00 +13°C° 0 mm 1 mps 737 mmHg 63%
    08:00 +15°C° 0 mm 1 mps 737 mmHg 57%
    09:00 +18°C° 0 mm 1 mps 737 mmHg 51%
    10:00 +20°C° 0 mm 1 mps 737 mmHg 45%
    11:00 +19°C° 0 mm 2 mps 737 mmHg 44%
    12:00 +20°C° 0 mm 2 mps 737 mmHg 43%
    13:00 +21°C° 0 mm 2 mps 737 mmHg 42%
    14:00 +20°C° 0 mm 2 mps 737 mmHg 45%
    15:00 +20°C° 0 mm 2 mps 736 mmHg 49%
    16:00 +19°C° 0 mm 2 mps 736 mmHg 53%
    17:00 +17°C° 0 mm 2 mps 736 mmHg 62%
    18:00 +15°C° 0 mm 1 mps 736 mmHg 71%
    19:00 +12°C° 0 mm 0 mps 736 mmHg 80%
    20:00 +12°C° 0 mm 0 mps 737 mmHg 79%
    21:00 +12°C° 0 mm 0 mps 737 mmHg 78%
    22:00 +13°C° 0 mm 1 mps 737 mmHg 78%
    23:00 +12°C° 0 mm 1 mps 737 mmHg 77%

    11 April, Saturday

    Time Temperature Precipitation Wind Pressure Humidity
    00:00 +12°C° 0 mm 1 mps 737 mmHg 75%
    01:00 +12°C° 0 mm 1 mps 737 mmHg 74%
    02:00 +12°C° 0 mm 1 mps 737 mmHg 73%
    03:00 +11°C° 0 mm 1 mps 737 mmHg 72%
    04:00 +11°C° 0 mm 1 mps 738 mmHg 71%
    05:00 +12°C° 0 mm 1 mps 738 mmHg 68%
    06:00 +14°C° 0 mm 1 mps 738 mmHg 66%
    07:00 +15°C° 0 mm 1 mps 738 mmHg 63%
    08:00 +16°C° 0 mm 1 mps 738 mmHg 58%
    09:00 +19°C° 0 mm 1 mps 738 mmHg 53%
    10:00 +21°C° 0 mm 1 mps 738 mmHg 47%
    11:00 +20°C° 0 mm 2 mps 738 mmHg 48%
    12:00 +21°C° 0 mm 2 mps 738 mmHg 49%
    13:00 +21°C° 0 mm 3 mps 738 mmHg 49%
    14:00 +21°C° 0 mm 3 mps 737 mmHg 53%
    15:00 +20°C° 0 mm 3 mps 737 mmHg 57%
    16:00 +19°C° 0 mm 2 mps 737 mmHg 61%
    17:00 +18°C° 0 mm 2 mps 737 mmHg 69%
    18:00 +16°C° 0 mm 1 mps 737 mmHg 78%
    19:00 +13°C° 0 mm 0 mps 737 mmHg 86%
    20:00 +13°C° 0 mm 0 mps 737 mmHg 86%
    21:00 +12°C° 0 mm 0 mps 737 mmHg 87%
    22:00 +12°C° 0 mm 0 mps 738 mmHg 87%
    23:00 +12°C° 0 mm 0 mps 738 mmHg 86%
    Show more